1998-067UN

Last updated on Sat May 20 2023 00:03:46 GMT+0000 (Coordinated Universal Time)

1 54536U 98067UN 23139.43955938 .00504014 12044-3 99862-3 0 9992 2 54536 51.6330 91.5163 0005331 86.2469 273.9151 15.99350311 26345

Satellite not in orbit

1998-067UN